Location: Unspecified
(41.1637°N, 24.2901°E)
Time: 06:05:42
(UTC+01:00)

ISS - Pass Details

Date: 07 December 2019
Orbit: 411 x 421 km, 51.6° (Epoch: 15 December)

Event Time Altitude Azimuth Distance (km) Brightness Sun altitude
Rises 17:38:55 0° 308° (NW) 2,361 0.6 -19.1°
Reaches altitude 10° 17:41:03 10° 313° (NW) 1,497 -0.5 -19.5°
Enters shadow 17:43:44 46° 349° (N) 574 -3.2 -20.0°
